#timestamp,LO_Frequency,Hit,StdDev 
1553108415.8,286046997.4,N
1553108435.6,286046994.9,Y
1553108455.5,286047000.8,P
1553108475.3,286046998.1,N
1553108495.2,286047001.0,N
1553108515.9,286047000.8,N
1553108535.7,286047001.2,N
1553108555.6,286046998.8,N
1553108575.4,286046998.4,N
1553108595.2,286046998.1,N
1553108615.1,286046999.1,N
1553108616.0,286046999.1,N
1553108635.8,286046996.8,N
1553108655.7,286046999.3,N
1553108675.5,286046999.1,N
1553108695.3,286046999.4,N
1553108715.2,286046998.8,N
1553108735.9,286046999.0,N
1553108755.7,286047001.2,N
1553108775.6,286046999.1,N
1553108795.4,286046998.9,N
1553108815.2,286046999.5,N
1553108835.1,286046995.0,Y
1553108836.0,286046995.0,P
1553108855.8,286046998.0,N
1553108875.7,286046997.4,N
1553108895.5,286046997.1,N
1553108915.3,286046999.2,N
1553108935.2,286046999.3,N
1553108955.0,286046999.1,N
1553108955.9,286046999.1,N
1553108975.8,286046995.7,Y
1553108995.6,286046996.6,P
1553109015.4,286046996.7,P
1553109035.3,286046999.6,N
1553109055.1,286046998.8,N
1553109075.8,286046999.3,N
1553109095.7,286046996.5,N
1553109115.5,286046996.6,N
1553109135.3,286046997.7,N
1553109155.2,286046995.6,Y
1553109175.0,286046999.3,P
1553109175.9,286046999.3,N
1553109195.8,286046999.0,N
1553109215.6,286047000.8,N
1553109235.4,286046996.9,Y
1553109255.3,286046999.3,P
1553109275.1,286046999.3,P
1553109295.9,286046999.3,P
1553109315.7,286046998.4,Y
1553109335.5,286047001.1,P
1553109355.4,286047000.8,N
1553109375.2,286047000.6,N
1553109395.1,286046999.8,N
1553109396.0,286046999.8,N
1553109415.8,286047001.9,N
1553109435.6,286046999.8,N
1553109455.5,286047000.8,N
1553109475.3,286047000.3,N
1553109495.2,286047000.1,N
1553109515.9,286047000.6,N
1553109535.7,286046998.6,N
1553109555.6,286046999.7,N
1553109575.4,286047000.5,N
1553109595.2,286047000.2,N
1553109615.1,286046999.7,N
1553109616.0,286046999.7,N
1553109635.8,286047000.3,N
1553109655.7,286046998.2,N
1553109675.5,286047000.9,N
1553109695.3,286046998.1,N
1553109715.2,286047000.8,N
1553109735.0,286047001.2,N
1553109735.9,286047001.2,N
1553109755.8,286046998.6,N
1553109775.6,286046999.1,N
1553109795.4,286046996.6,Y
1553109815.3,286046999.0,P
1553109835.1,286046996.5,P
1553109855.8,286046998.7,N
1553109875.7,286046998.5,N
1553109895.5,286046998.7,N
1553109915.4,286046999.4,N
1553109935.2,286046998.9,N
1553109955.0,286046999.2,N
1553109955.9,286046999.2,N
1553109975.8,286046996.5,Y
1553109995.6,286047000.7,P
1553110015.5,286047000.8,N
1553110035.3,286047000.1,N
1553110055.1,286046998.6,N
1553110075.9,286046998.2,N
1553110095.7,286046998.4,N
1553110115.5,286046999.2,N
1553110135.4,286046999.0,N
1553110155.2,286046997.0,Y
1553110175.0,286046998.4,P
1553110176.0,286046998.4,P
1553110195.8,286047000.9,N
1553110215.6,286047000.3,N
1553110235.5,286047000.6,N
1553110255.3,286047000.9,N
1553110275.1,286046999.9,N
1553110295.9,286047000.0,N
1553110315.7,286046999.9,N
1553110335.5,286046999.8,N
1553110355.4,286047000.8,N
1553110375.2,286046999.8,N
1553110395.1,286047000.5,N
1553110396.0,286047000.5,N
1553110415.8,286047000.6,N
1553110435.6,286046999.4,N
1553110455.5,286046996.5,Y
1553110475.3,286046998.9,P
1553110495.2,286046998.3,P
1553110515.9,286047001.2,N
1553110535.7,286046999.0,N
1553110555.6,286047001.2,N
1553110575.4,286047001.2,N
1553110595.2,286047000.0,N
1553110615.1,286047002.5,N
1553110616.0,286047002.5,N
1553110635.8,286047002.6,N
1553110655.7,286047002.0,N
1553110675.5,286046999.9,N
1553110695.3,286047000.2,N
1553110715.2,286047001.3,N
1553110735.9,286047004.0,N
1553110755.7,286047002.5,N
1553110775.6,286046999.8,N
1553110795.4,286047000.3,N
1553110815.3,286047000.3,N
1553110835.1,286047000.2,N
1553110836.0,286047000.2,N
1553110855.8,286046999.7,N
1553110875.7,286047002.2,N
1553110895.5,286047002.0,N
1553110915.3,286047001.8,N
1553110935.2,286047002.3,N
1553110955.0,286047002.8,N
1553110955.9,286047002.8,N
1553110975.8,286047002.1,N
1553110995.6,286047002.5,N
1553111015.4,286047001.3,N
1553111035.3,286047001.7,N
1553111055.1,286047002.2,N
1553111075.8,286047001.8,N
1553111095.7,286047004.4,Y
1553111115.5,286047000.0,P
1553111135.4,286047001.4,N
1553111155.2,286047003.6,P
1553111175.0,286047006.0,Y
1553111175.9,286047006.0,P
1553111195.8,286047003.2,N
1553111215.6,286047004.4,N
1553111235.5,286046999.9,N
1553111255.3,286046999.8,N
1553111275.1,286047002.6,N
1553111295.9,286046999.7,N
1553111315.7,286047000.3,N
1553111335.5,286047002.6,N
1553111355.4,286047002.6,N
1553111375.2,286047002.7,N
1553111395.1,286046999.9,N
1553111396.0,286046999.9,N
1553111415.8,286046999.3,N
1553111435.6,286046998.7,N
1553111455.5,286047001.1,N
1553111475.3,286046998.8,N
1553111495.1,286046998.6,N
1553111515.9,286046998.3,N
1553111535.7,286046998.8,N
1553111555.6,286046998.1,N
1553111575.4,286047000.1,N
1553111595.2,286047000.9,N
1553111615.1,286047002.1,N
1553111616.0,286047002.1,N
1553111635.8,286047002.3,N
1553111655.6,286047000.1,N
1553111675.5,286047000.2,N
1553111695.3,286047003.9,N
1553111715.1,286047004.1,N
1553111735.9,286047004.4,N
1553111755.7,286047002.4,N
1553111775.6,286047002.1,N
1553111795.4,286047004.0,N
1553111815.2,286047001.9,N
1553111835.1,286047004.2,N
1553111836.0,286047004.2,N
1553111855.8,286047003.8,N
1553111875.6,286047004.2,N
1553111895.5,286047003.0,N
1553111915.3,286047004.8,N
1553111935.2,286047005.0,N
1553111955.9,286047005.0,N
1553111975.7,286047007.2,Y
1553111995.6,286047006.0,P
